• In Deutschland
  • Länderverzeichnis
  • Für 7 Tage
  • Wassertemperatur
  • Satellitenkarten
  • Wetterkarte
  • Widgets
  • user-avatar
    Anmelden

    Stündliche Wetter Makoua

    Heute, 17 August, Donnerstag

    Zeit Temperatur Niederschläge Wind Luftdruck Luftfeuchtigkeit
    00:00 +25°C° 0 mm 1 m/S 726 mmHg 87%
    01:00 +25°C° 0 mm 2 m/S 726 mmHg 86%
    02:00 +24°C° 0 mm 2 m/S 726 mmHg 87%
    03:00 +24°C° 0 mm 2 m/S 726 mmHg 88%
    04:00 +24°C° 0 mm 2 m/S 726 mmHg 89%
    05:00 +24°C° 0 mm 2 m/S 726 mmHg 87%
    06:00 +24°C° 0 mm 2 m/S 726 mmHg 86%
    07:00 +24°C° 0 mm 2 m/S 727 mmHg 81%
    08:00 +27°C° 0 mm 2 m/S 727 mmHg 73%
    09:00 +29°C° 0 mm 2 m/S 727 mmHg 64%
    10:00 +31°C° 0 mm 2 m/S 727 mmHg 55%
    11:00 +32°C° 0 mm 2 m/S 727 mmHg 50%
    12:00 +34°C° 0 mm 2 m/S 726 mmHg 46%
    13:00 +35°C° 0 mm 2 m/S 726 mmHg 43%
    14:00 +35°C° 0 mm 2 m/S 726 mmHg 43%
    15:00 +35°C° 0 mm 2 m/S 725 mmHg 43%
    16:00 +35°C° 0 mm 2 m/S 725 mmHg 43%
    17:00 +32°C° 0 mm 2 m/S 725 mmHg 49%
    18:00 +30°C° 0 mm 1 m/S 725 mmHg 56%
    19:00 +28°C° 0 mm 1 m/S 725 mmHg 63%
    20:00 +28°C° 0 mm 1 m/S 725 mmHg 67%
    21:00 +27°C° 0 mm 1 m/S 726 mmHg 70%
    22:00 +26°C° 0 mm 1 m/S 726 mmHg 73%
    23:00 +26°C° 0 mm 1 m/S 726 mmHg 75%

    Morgen, 18 August, Freitag

    Zeit Temperatur Niederschläge Wind Luftdruck Luftfeuchtigkeit
    00:00 +25°C° 0 mm 1 m/S 726 mmHg 77%
    01:00 +25°C° 0 mm 1 m/S 726 mmHg 79%
    02:00 +25°C° 0 mm 1 m/S 726 mmHg 79%
    03:00 +25°C° 0 mm 1 m/S 726 mmHg 78%
    04:00 +24°C° 0 mm 1 m/S 726 mmHg 78%
    05:00 +24°C° 0 mm 2 m/S 726 mmHg 78%
    06:00 +25°C° 0 mm 2 m/S 726 mmHg 77%
    07:00 +25°C° 0 mm 2 m/S 727 mmHg 76%
    08:00 +27°C° 0 mm 2 m/S 727 mmHg 69%
    09:00 +29°C° 0 mm 2 m/S 728 mmHg 61%
    10:00 +31°C° 0 mm 2 m/S 728 mmHg 53%
    11:00 +32°C° 0 mm 2 m/S 727 mmHg 50%
    12:00 +33°C° 0 mm 1 m/S 727 mmHg 46%
    13:00 +34°C° 0 mm 1 m/S 726 mmHg 43%
    14:00 +34°C° 0 mm 1 m/S 725 mmHg 44%
    15:00 +33°C° 0 mm 1 m/S 725 mmHg 45%
    16:00 +33°C° 0 mm 1 m/S 724 mmHg 46%
    17:00 +31°C° 0 mm 1 m/S 725 mmHg 52%
    18:00 +30°C° 0 mm 1 m/S 725 mmHg 58%
    19:00 +28°C° 0 mm 1 m/S 725 mmHg 64%
    20:00 +28°C° 0 mm 1 m/S 725 mmHg 67%
    21:00 +27°C° 0 mm 1 m/S 726 mmHg 70%
    22:00 +26°C° 0 mm 1 m/S 726 mmHg 73%
    23:00 +26°C° 0,1 mm 1 m/S 726 mmHg 75%

    übermorgen, 19 August, Samstag

    Zeit Temperatur Niederschläge Wind Luftdruck Luftfeuchtigkeit
    00:00 +26°C° 0,1 mm 1 m/S 726 mmHg 76%
    01:00 +25°C° 0,1 mm 1 m/S 726 mmHg 78%
    02:00 +25°C° 0,4 mm 1 m/S 725 mmHg 81%
    03:00 +24°C° 0,4 mm 1 m/S 725 mmHg 84%
    04:00 +24°C° 0,4 mm 1 m/S 725 mmHg 87%
    05:00 +24°C° 0,2 mm 1 m/S 725 mmHg 86%
    06:00 +24°C° 0,2 mm 1 m/S 726 mmHg 86%
    07:00 +24°C° 0,2 mm 1 m/S 726 mmHg 85%
    08:00 +27°C° 0 mm 1 m/S 727 mmHg 73%
    09:00 +30°C° 0 mm 1 m/S 727 mmHg 61%
    10:00 +33°C° 0 mm 1 m/S 728 mmHg 49%
    11:00 +34°C° 0,3 mm 1 m/S 727 mmHg 46%
    12:00 +35°C° 0,3 mm 1 m/S 727 mmHg 43%
    13:00 +36°C° 0,3 mm 1 m/S 726 mmHg 40%
    14:00 +34°C° 0,3 mm 1 m/S 725 mmHg 47%
    15:00 +32°C° 0,3 mm 1 m/S 725 mmHg 54%
    16:00 +30°C° 0,3 mm 1 m/S 724 mmHg 62%
    17:00 +29°C° 0 mm 1 m/S 724 mmHg 66%
    18:00 +28°C° 0 mm 1 m/S 725 mmHg 70%
    19:00 +25°C° 0 mm 0 m/S 725 mmHg 74%
    20:00 +26°C° 0,5 mm 1 m/S 726 mmHg 79%
    21:00 +26°C° 0,5 mm 1 m/S 726 mmHg 84%
    22:00 +25°C° 0,5 mm 1 m/S 727 mmHg 89%
    23:00 +25°C° 0,3 mm 1 m/S 726 mmHg 91%

    20 August, Sonntag

    Zeit Temperatur Niederschläge Wind Luftdruck Luftfeuchtigkeit
    00:00 +24°C° 0,3 mm 1 m/S 726 mmHg 92%
    01:00 +24°C° 0,3 mm 1 m/S 726 mmHg 93%
    02:00 +24°C° 0,9 mm 1 m/S 726 mmHg 94%
    03:00 +24°C° 0,9 mm 1 m/S 726 mmHg 94%
    04:00 +24°C° 0,9 mm 1 m/S 726 mmHg 95%
    05:00 +24°C° 1,1 mm 1 m/S 727 mmHg 95%
    06:00 +24°C° 1,1 mm 1 m/S 727 mmHg 95%
    07:00 +24°C° 1,1 mm 1 m/S 728 mmHg 95%
    08:00 +24°C° 0,3 mm 2 m/S 728 mmHg 91%
    09:00 +25°C° 0,3 mm 2 m/S 729 mmHg 87%
    10:00 +26°C° 0,3 mm 2 m/S 729 mmHg 84%
    11:00 +27°C° 0,4 mm 2 m/S 729 mmHg 81%
    12:00 +27°C° 0,4 mm 2 m/S 728 mmHg 79%
    13:00 +28°C° 0,4 mm 2 m/S 727 mmHg 77%
    14:00 +28°C° 1,2 mm 2 m/S 727 mmHg 79%
    15:00 +27°C° 1,2 mm 1 m/S 726 mmHg 82%
    16:00 +27°C° 1,2 mm 1 m/S 726 mmHg 84%
    17:00 +26°C° 2 mm 1 m/S 727 mmHg 87%
    18:00 +25°C° 2 mm 1 m/S 727 mmHg 91%
    19:00 +22°C° 2 mm 0 m/S 728 mmHg 94%
    20:00 +24°C° 0,3 mm 1 m/S 728 mmHg 94%
    21:00 +24°C° 0,3 mm 1 m/S 728 mmHg 95%
    22:00 +24°C° 0,3 mm 1 m/S 729 mmHg 96%
    23:00 +24°C° 0 mm 1 m/S 728 mmHg 95%

    21 August, Montag

    Zeit Temperatur Niederschläge Wind Luftdruck Luftfeuchtigkeit
    00:00 +23°C° 0 mm 1 m/S 728 mmHg 95%
    01:00 +23°C° 0 mm 1 m/S 727 mmHg 95%
    02:00 +23°C° 0 mm 1 m/S 727 mmHg 95%
    03:00 +23°C° 0 mm 1 m/S 727 mmHg 96%
    04:00 +23°C° 0 mm 1 m/S 727 mmHg 96%
    05:00 +23°C° 0 mm 1 m/S 728 mmHg 95%
    06:00 +23°C° 0 mm 1 m/S 728 mmHg 94%
    07:00 +23°C° 0 mm 1 m/S 729 mmHg 93%
    08:00 +25°C° 0,1 mm 1 m/S 729 mmHg 86%
    09:00 +26°C° 0,1 mm 2 m/S 729 mmHg 79%
    10:00 +28°C° 0,1 mm 2 m/S 730 mmHg 72%
    11:00 +29°C° 0,1 mm 2 m/S 729 mmHg 67%
    12:00 +30°C° 0,1 mm 2 m/S 728 mmHg 62%
    13:00 +31°C° 0,1 mm 2 m/S 727 mmHg 58%
    14:00 +31°C° 0,1 mm 2 m/S 726 mmHg 58%
    15:00 +31°C° 0,1 mm 2 m/S 725 mmHg 58%
    16:00 +31°C° 0,1 mm 2 m/S 725 mmHg 58%
    17:00 +29°C° 0,1 mm 2 m/S 725 mmHg 65%
    18:00 +28°C° 0,1 mm 1 m/S 726 mmHg 71%
    19:00 +26°C° 0,1 mm 1 m/S 726 mmHg 78%
    20:00 +25°C° 0,8 mm 1 m/S 727 mmHg 83%
    21:00 +25°C° 0,8 mm 1 m/S 727 mmHg 88%
    22:00 +24°C° 0,8 mm 1 m/S 728 mmHg 92%
    23:00 +24°C° 0 mm 1 m/S 728 mmHg 92%

    22 August, Dienstag

    Zeit Temperatur Niederschläge Wind Luftdruck Luftfeuchtigkeit
    00:00 +24°C° 0 mm 2 m/S 727 mmHg 92%
    01:00 +23°C° 0 mm 2 m/S 727 mmHg 91%
    02:00 +23°C° 0 mm 2 m/S 727 mmHg 91%
    03:00 +23°C° 0 mm 2 m/S 727 mmHg 91%
    04:00 +23°C° 0 mm 1 m/S 727 mmHg 92%
    05:00 +23°C° 0 mm 1 m/S 727 mmHg 90%
    06:00 +23°C° 0 mm 1 m/S 728 mmHg 89%
    07:00 +23°C° 0 mm 1 m/S 728 mmHg 88%
    08:00 +25°C° 0 mm 1 m/S 728 mmHg 81%
    09:00 +26°C° 0 mm 2 m/S 729 mmHg 75%
    10:00 +28°C° 0 mm 2 m/S 729 mmHg 68%
    11:00 +29°C° 0 mm 2 m/S 728 mmHg 63%
    12:00 +30°C° 0 mm 1 m/S 728 mmHg 59%
    13:00 +31°C° 0 mm 1 m/S 727 mmHg 55%
    14:00 +31°C° 0,1 mm 1 m/S 726 mmHg 55%
    15:00 +31°C° 0,1 mm 1 m/S 726 mmHg 55%
    16:00 +31°C° 0,1 mm 1 m/S 725 mmHg 55%
    17:00 +30°C° 0 mm 1 m/S 725 mmHg 61%
    18:00 +28°C° 0 mm 1 m/S 725 mmHg 68%
    19:00 +26°C° 0 mm 1 m/S 726 mmHg 75%
    20:00 +26°C° 0 mm 1 m/S 726 mmHg 76%
    21:00 +26°C° 0 mm 1 m/S 726 mmHg 77%
    22:00 +25°C° 0 mm 1 m/S 727 mmHg 78%
    23:00 +25°C° 0 mm 1 m/S 726 mmHg 79%
    Mehr zeigen